User: anonymous   Login
Location: Unspecified
(0.0000°N, 0.0000°E)
Time: 06:23:31
(UTC+00:00)
Language:

Geosat - Orbit

View from above orbital plane
View from above orbital plane
View from above satellite
View from above satellite

Ground track
Ground track

The orbit data is extracted from the following two-line orbital elements,

1 15595U 85021A   18321.31660095 -.00000068 +00000-0 +22137-4 0  9990
2 15595 108.0332 090.4433 0002436 250.7504 164.9135 14.38093501764601
Epoch (UTC): 17 November 2018 07:35:54
Eccentricity: 0.0002436
inclination: 108.0332°
perigee height: 763 km
apogee height: 766 km
right ascension of ascending node: 90.4433°
argument of perigee: 250.7504°
revolutions per day: 14.38093501
mean anomaly at epoch: 164.9135°
orbit number at epoch: 76460

The dashed part of the orbit path shows where the satellite is in the earth's shadow,  

DLR